TimeEDT,TemperatureF,Dew PointF,Humidity,Sea Level PressureIn,VisibilityMPH,Wind Direction,Wind SpeedMPH,Gust SpeedMPH,PrecipitationIn,Events,Conditions,WindDirDegrees,DateUTC
12:35 AM,71.6,66.2,83,29.97,10.0,SSW,6.9,-,N/A,,Clear,200,2013-10-04 04:35:00
12:55 AM,71.6,66.2,83,29.96,10.0,SSW,6.9,-,N/A,,Clear,200,2013-10-04 04:55:00
1:15 AM,71.6,66.2,83,29.96,10.0,SSW,6.9,-,N/A,,Clear,200,2013-10-04 05:15:00
1:35 AM,71.6,66.2,83,29.96,10.0,SSW,6.9,-,N/A,,Clear,210,2013-10-04 05:35:00
1:55 AM,71.6,66.2,83,29.96,10.0,SSW,5.8,-,N/A,,Clear,200,2013-10-04 05:55:00
2:15 AM,71.6,66.2,83,29.97,10.0,SSW,5.8,-,N/A,,Scattered Clouds,210,2013-10-04 06:15:00
2:36 AM,71.6,66.2,83,29.97,10.0,SSW,8.1,-,N/A,,Clear,200,2013-10-04 06:36:00
2:56 AM,71.6,66.2,83,29.97,10.0,SSW,5.8,-,N/A,,Scattered Clouds,210,2013-10-04 06:56:00
3:16 AM,71.6,66.2,83,29.97,10.0,SW,4.6,-,N/A,,Mostly Cloudy,220,2013-10-04 07:16:00
3:36 AM,71.6,66.2,83,29.97,10.0,SSW,6.9,-,N/A,,Mostly Cloudy,210,2013-10-04 07:36:00
3:56 AM,71.6,66.2,83,29.96,10.0,SSW,6.9,-,N/A,,Scattered Clouds,200,2013-10-04 07:56:00
4:16 AM,71.6,66.2,83,29.96,10.0,SSW,8.1,-,N/A,,Clear,200,2013-10-04 08:16:00
4:36 AM,71.6,66.2,83,29.96,10.0,SSW,8.1,-,N/A,,Clear,210,2013-10-04 08:36:00
4:56 AM,71.6,66.2,83,29.96,10.0,SSW,6.9,-,N/A,,Clear,210,2013-10-04 08:56:00
5:16 AM,71.6,66.2,83,29.97,10.0,SW,8.1,-,N/A,,Clear,220,2013-10-04 09:16:00
5:36 AM,71.6,66.2,83,29.97,10.0,SSW,8.1,-,N/A,,Clear,210,2013-10-04 09:36:00
5:57 AM,71.6,66.2,83,29.97,10.0,SW,6.9,-,N/A,,Clear,220,2013-10-04 09:57:00
6:12 AM,71.6,66.2,83,29.97,10.0,SW,8.1,-,N/A,,Scattered Clouds,220,2013-10-04 10:12:00
6:32 AM,71.6,66.2,83,29.98,10.0,SW,6.9,-,N/A,,Scattered Clouds,230,2013-10-04 10:32:00
6:52 AM,71.6,66.2,83,29.98,10.0,SW,6.9,-,N/A,,Clear,220,2013-10-04 10:52:00
7:12 AM,71.6,66.2,83,29.99,10.0,SW,6.9,-,N/A,,Clear,230,2013-10-04 11:12:00
7:32 AM,71.6,66.2,83,29.99,10.0,WSW,8.1,-,N/A,,Clear,240,2013-10-04 11:32:00
7:52 AM,71.6,66.2,83,30.00,10.0,WSW,8.1,-,N/A,,Clear,240,2013-10-04 11:52:00
8:12 AM,71.6,66.2,83,30.01,10.0,WSW,5.8,-,N/A,,Clear,250,2013-10-04 12:12:00
8:33 AM,71.6,66.2,83,30.02,10.0,WSW,8.1,-,N/A,,Mostly Cloudy,240,2013-10-04 12:33:00
8:53 AM,71.6,66.2,83,30.02,10.0,WSW,6.9,-,N/A,,Mostly Cloudy,240,2013-10-04 12:53:00
9:13 AM,71.6,66.2,83,30.02,7.0,WSW,5.8,-,N/A,,Scattered Clouds,240,2013-10-04 13:13:00
9:33 AM,71.6,66.2,83,30.01,7.0,WSW,5.8,-,N/A,Rain,Light Rain,240,2013-10-04 13:33:00
9:53 AM,71.6,68.0,88,30.02,1.2,West,4.6,-,N/A,Rain,Heavy Rain,280,2013-10-04 13:53:00
10:13 AM,71.6,68.0,88,30.02,7.0,WNW,3.5,-,N/A,,Mostly Cloudy,290,2013-10-04 14:13:00
10:33 AM,71.6,68.0,88,30.02,10.0,West,5.8,-,N/A,,Mostly Cloudy,260,2013-10-04 14:33:00
10:53 AM,73.4,68.0,83,30.02,10.0,West,5.8,-,N/A,,Mostly Cloudy,260,2013-10-04 14:53:00
11:13 AM,73.4,69.8,88,30.02,10.0,West,4.6,-,N/A,,Scattered Clouds,260,2013-10-04 15:13:00
11:33 AM,75.2,69.8,83,30.02,10.0,West,5.8,-,N/A,,Scattered Clouds,260,2013-10-04 15:33:00
11:53 AM,75.2,69.8,83,30.01,10.0,West,6.9,-,N/A,,Scattered Clouds,260,2013-10-04 15:53:00
12:13 PM,75.2,69.8,83,30.02,10.0,WSW,8.1,-,N/A,,Mostly Cloudy,240,2013-10-04 16:13:00
12:34 PM,77.0,68.0,74,30.02,10.0,SW,5.8,-,N/A,,Scattered Clouds,230,2013-10-04 16:34:00
12:54 PM,77.0,68.0,74,30.03,10.0,SW,8.1,-,N/A,,Clear,230,2013-10-04 16:54:00
1:14 PM,77.0,68.0,74,30.03,10.0,SW,5.8,-,N/A,,Clear,230,2013-10-04 17:14:00
1:34 PM,77.0,68.0,74,30.03,10.0,SW,5.8,-,N/A,,Clear,220,2013-10-04 17:34:00
1:54 PM,78.8,69.8,74,30.02,10.0,SSW,8.1,-,N/A,,Scattered Clouds,200,2013-10-04 17:54:00
2:14 PM,78.8,68.0,69,30.01,10.0,SW,5.8,-,N/A,,Clear,220,2013-10-04 18:14:00
2:34 PM,78.8,68.0,69,30.00,10.0,SW,6.9,-,N/A,,Clear,220,2013-10-04 18:34:00
2:54 PM,80.6,68.0,65,29.99,10.0,SSW,3.5,-,N/A,,Clear,200,2013-10-04 18:54:00
3:14 PM,80.6,66.2,61,30.00,10.0,SSW,5.8,-,N/A,,Clear,210,2013-10-04 19:14:00
3:35 PM,80.6,68.0,65,30.00,10.0,South,5.8,-,N/A,,Scattered Clouds,190,2013-10-04 19:35:00
3:55 PM,78.8,69.8,74,29.99,10.0,SSW,8.1,-,N/A,,Scattered Clouds,200,2013-10-04 19:55:00
4:15 PM,78.8,71.6,78,30.00,10.0,South,8.1,-,N/A,,Clear,190,2013-10-04 20:15:00
4:35 PM,78.8,71.6,78,29.99,10.0,South,4.6,-,N/A,,Clear,170,2013-10-04 20:35:00
4:55 PM,78.8,71.6,78,30.00,10.0,South,6.9,-,N/A,,Scattered Clouds,180,2013-10-04 20:55:00
5:15 PM,78.8,69.8,74,30.00,10.0,SSW,6.9,-,N/A,,Scattered Clouds,200,2013-10-04 21:15:00
5:35 PM,78.8,69.8,74,30.00,10.0,South,5.8,-,N/A,,Scattered Clouds,190,2013-10-04 21:35:00
5:55 PM,77.0,69.8,78,30.00,10.0,South,8.1,-,N/A,,Clear,190,2013-10-04 21:55:00
6:16 PM,75.2,69.8,83,30.00,10.0,South,3.5,-,N/A,,Clear,190,2013-10-04 22:16:00
6:36 PM,75.2,69.8,83,30.00,10.0,SSW,3.5,-,N/A,,Clear,210,2013-10-04 22:36:00
6:56 PM,75.2,69.8,83,30.00,10.0,South,5.8,-,N/A,,Clear,190,2013-10-04 22:56:00
7:16 PM,73.4,69.8,88,30.01,10.0,South,3.5,-,N/A,,Clear,180,2013-10-04 23:16:00
7:36 PM,73.4,69.8,88,30.01,10.0,SSW,4.6,-,N/A,,Clear,200,2013-10-04 23:36:00
7:56 PM,73.4,68.0,83,30.02,10.0,SSW,6.9,-,N/A,,Clear,200,2013-10-04 23:56:00
8:16 PM,73.4,68.0,83,30.02,10.0,SSW,4.6,-,N/A,,Scattered Clouds,210,2013-10-05 00:16:00
8:36 PM,71.6,68.0,88,30.02,10.0,SW,3.5,-,N/A,,Scattered Clouds,220,2013-10-05 00:36:00
8:56 PM,71.6,66.2,83,30.01,10.0,Calm,Calm,-,N/A,,Clear,0,2013-10-05 00:56:00
9:16 PM,69.8,66.2,88,30.01,10.0,Calm,Calm,-,N/A,,Clear,0,2013-10-05 01:16:00
9:36 PM,69.8,66.2,88,30.02,10.0,West,3.5,-,N/A,,Clear,280,2013-10-05 01:36:00
9:56 PM,68.0,66.2,94,30.02,10.0,SW,4.6,-,N/A,,Clear,220,2013-10-05 01:56:00
10:16 PM,69.8,66.2,88,30.01,10.0,Calm,Calm,-,N/A,,Clear,0,2013-10-05 02:16:00
10:32 PM,69.8,66.2,88,30.02,10.0,SW,4.6,-,N/A,,Clear,220,2013-10-05 02:32:00
10:52 PM,69.8,66.2,88,30.02,10.0,WSW,6.9,-,N/A,,Clear,250,2013-10-05 02:52:00
11:12 PM,69.8,66.2,88,30.02,10.0,West,6.9,-,N/A,,Scattered Clouds,260,2013-10-05 03:12:00
11:32 PM,69.8,66.2,88,30.02,10.0,West,8.1,-,N/A,,Scattered Clouds,260,2013-10-05 03:32:00
11:52 PM,71.6,66.2,83,30.02,10.0,West,3.5,-,N/A,,Clear,270,2013-10-05 03:52:00